Time,TemperatureF,DewpointF,PressureIn,WindDirection,WindDirectionDegrees,WindSpeedMPH,WindSpeedGustMPH,Humidity,HourlyPrecipIn,Conditions,Clouds,dailyrainin,SoftwareType,DateUTC
2013-02-19 00:01:00,30.2,14.0,30.23,South,178,4.6,-999.9,51,-99.99,,,-99.99,,2013-02-19 05:01:00,
2013-02-19 00:05:00,30.2,14.0,30.23,South,178,4.6,-999.9,51,-99.99,,,-99.99,,2013-02-19 05:05:00,
2013-02-19 00:13:00,30.2,14.0,30.24,South,183,3.5,-999.9,51,-99.99,,,-99.99,,2013-02-19 05:13:00,
2013-02-19 00:19:00,30.2,14.0,30.24,South,183,3.5,-999.9,51,-99.99,,,-99.99,,2013-02-19 05:19:00,
2013-02-19 00:25:00,30.2,14.0,30.24,South,171,3.5,-999.9,51,-99.99,,,-99.99,,2013-02-19 05:25:00,
2013-02-19 00:33:00,30.2,14.0,30.24,SSE,162,3.5,-999.9,51,-99.99,,,-99.99,,2013-02-19 05:33:00,
2013-02-19 00:39:00,30.2,14.0,30.24,SSE,162,3.5,-999.9,51,-99.99,,,-99.99,,2013-02-19 05:39:00,
2013-02-19 00:45:00,30.2,14.0,30.23,SSE,159,3.5,-999.9,51,-99.99,,,-99.99,,2013-02-19 05:45:00,
2013-02-19 00:53:00,30.2,14.0,30.22,SE,140,2.3,-999.9,51,-99.99,,,-99.99,,2013-02-19 05:53:00,
2013-02-19 00:59:00,30.2,14.0,30.22,SE,140,2.3,-999.9,51,-99.99,,,-99.99,,2013-02-19 05:59:00,
2013-02-19 01:05:00,30.2,14.0,30.22,ESE,121,3.5,-999.9,51,-99.99,,,-99.99,,2013-02-19 06:05:00,
2013-02-19 01:14:00,30.2,15.8,30.22,North,0,0.0,-999.9,55,-99.99,,,-99.99,,2013-02-19 06:14:00,
2013-02-19 01:20:00,30.2,15.8,30.22,North,0,0.0,-999.9,55,-99.99,,,-99.99,,2013-02-19 06:20:00,
2013-02-19 01:26:00,28.4,14.0,30.21,North,0,0.0,-999.9,55,-99.99,,,-99.99,,2013-02-19 06:26:00,
2013-02-19 01:34:00,28.4,15.8,30.21,North,0,0.0,-999.9,59,-99.99,,,-99.99,,2013-02-19 06:34:00,
2013-02-19 02:11:00,26.6,15.8,30.20,North,0,0.0,-999.9,64,-99.99,,,-99.99,,2013-02-19 07:11:00,
2013-02-19 02:17:00,26.6,15.8,30.20,North,0,0.0,-999.9,64,-99.99,,,-99.99,,2013-02-19 07:17:00,
2013-02-19 02:25:00,28.4,15.8,30.20,North,0,0.0,-999.9,59,-99.99,,,-99.99,,2013-02-19 07:25:00,
2013-02-19 02:31:00,28.4,15.8,30.20,South,178,0.0,-999.9,59,-99.99,,,-99.99,,2013-02-19 07:31:00,
2013-02-19 02:37:00,28.4,15.8,30.20,South,178,0.0,-999.9,59,-99.99,,,-99.99,,2013-02-19 07:37:00,
2013-02-19 02:45:00,28.4,15.8,30.19,SSE,162,5.8,-999.9,59,-99.99,,,-99.99,,2013-02-19 07:45:00,
2013-02-19 02:51:00,30.2,17.6,30.19,SSE,158,4.6,-999.9,60,-99.99,,,-99.99,,2013-02-19 07:51:00,
2013-02-19 02:57:00,30.2,17.6,30.19,SSE,158,4.6,-999.9,60,-99.99,,,-99.99,,2013-02-19 07:57:00,
2013-02-19 03:05:00,30.2,17.6,30.18,SSE,150,6.9,-999.9,60,-99.99,,,-99.99,,2013-02-19 08:05:00,
2013-02-19 03:11:00,30.2,19.4,30.18,SSE,151,5.8,-999.9,64,-99.99,,,-99.99,,2013-02-19 08:11:00,
2013-02-19 03:17:00,30.2,19.4,30.18,SSE,151,5.8,-999.9,64,-99.99,,,-99.99,,2013-02-19 08:17:00,
2013-02-19 03:25:00,30.2,19.4,30.17,SSE,147,3.5,-999.9,64,-99.99,,,-99.99,,2013-02-19 08:25:00,
2013-02-19 03:31:00,30.2,19.4,30.17,SE,145,4.6,-999.9,64,-99.99,,,-99.99,,2013-02-19 08:31:00,
2013-02-19 03:37:00,30.2,19.4,30.17,SE,145,4.6,-999.9,64,-99.99,,,-99.99,,2013-02-19 08:37:00,
2013-02-19 03:45:00,30.2,19.4,30.17,SE,138,4.6,-999.9,64,-99.99,,,-99.99,,2013-02-19 08:45:00,
2013-02-19 03:51:00,30.2,21.2,30.16,ESE,115,4.6,-999.9,69,-99.99,,,-99.99,,2013-02-19 08:51:00,
2013-02-19 03:57:00,30.2,21.2,30.16,ESE,115,4.6,-999.9,69,-99.99,,,-99.99,,2013-02-19 08:57:00,
2013-02-19 04:05:00,30.2,21.2,30.16,ESE,118,4.6,-999.9,69,-99.99,,,-99.99,,2013-02-19 09:05:00,
2013-02-19 04:11:00,30.2,21.2,30.16,North,0,0.0,-999.9,69,-99.99,,,-99.99,,2013-02-19 09:11:00,
2013-02-19 04:17:00,30.2,21.2,30.16,North,0,0.0,-999.9,69,-99.99,,,-99.99,,2013-02-19 09:17:00,
2013-02-19 04:25:00,30.2,21.2,30.16,ESE,114,0.0,-999.9,69,-99.99,,,-99.99,,2013-02-19 09:25:00,
2013-02-19 04:31:00,30.2,23.0,30.16,ESE,123,1.2,-999.9,75,-99.99,,,-99.99,,2013-02-19 09:31:00,
2013-02-19 04:37:00,30.2,23.0,30.16,ESE,123,1.2,-999.9,75,-99.99,,,-99.99,,2013-02-19 09:37:00,
2013-02-19 04:45:00,30.2,23.0,30.16,SSE,153,2.3,-999.9,75,-99.99,,,-99.99,,2013-02-19 09:45:00,
2013-02-19 04:51:00,32.0,24.8,30.16,SE,131,2.3,-999.9,75,-99.99,,,-99.99,,2013-02-19 09:51:00,
2013-02-19 04:57:00,32.0,24.8,30.16,SE,131,2.3,-999.9,75,-99.99,,,-99.99,,2013-02-19 09:57:00,
2013-02-19 05:03:00,32.0,24.8,30.16,SE,130,3.5,-999.9,75,-99.99,,,-99.99,,2013-02-19 10:03:00,
2013-02-19 05:11:00,30.2,23.0,30.16,SE,145,1.2,-999.9,75,-99.99,,,-99.99,,2013-02-19 10:11:00,
2013-02-19 05:17:00,30.2,23.0,30.16,SE,145,1.2,-999.9,75,-99.99,,,-99.99,,2013-02-19 10:17:00,
2013-02-19 05:25:00,32.0,24.8,30.15,SE,136,4.6,-999.9,75,-99.99,,,-99.99,,2013-02-19 10:25:00,
2013-02-19 05:31:00,32.0,24.8,30.15,SE,131,3.5,-999.9,75,-99.99,,,-99.99,,2013-02-19 10:31:00,
2013-02-19 05:37:00,32.0,24.8,30.15,SE,131,3.5,-999.9,75,-99.99,,,-99.99,,2013-02-19 10:37:00,
2013-02-19 05:45:00,32.0,26.6,30.15,SE,130,3.5,-999.9,80,-99.99,,,-99.99,,2013-02-19 10:45:00,
2013-02-19 05:52:00,32.0,26.6,30.14,SE,134,3.5,-999.9,80,-99.99,,,-99.99,,2013-02-19 10:52:00,
2013-02-19 05:57:00,32.0,26.6,30.14,SE,134,3.5,-999.9,80,-99.99,,,-99.99,,2013-02-19 10:57:00,
2013-02-19 06:05:00,32.0,26.6,30.14,SE,124,3.5,-999.9,80,-99.99,,,-99.99,,2013-02-19 11:05:00,
2013-02-19 06:11:00,30.2,24.8,30.12,ENE,68,0.0,-999.9,80,-99.99,,,-99.99,,2013-02-19 11:11:00,
2013-02-19 06:17:00,30.2,24.8,30.12,ENE,68,0.0,-999.9,80,-99.99,,,-99.99,,2013-02-19 11:17:00,
2013-02-19 06:25:00,30.2,26.6,30.11,ENE,69,0.0,-999.9,86,-99.99,,,-99.99,,2013-02-19 11:25:00,
2013-02-19 06:31:00,30.2,26.6,30.11,East,96,4.6,-999.9,86,-99.99,,,-99.99,,2013-02-19 11:31:00,
2013-02-19 06:37:00,30.2,26.6,30.11,East,96,4.6,-999.9,86,-99.99,,,-99.99,,2013-02-19 11:37:00,
2013-02-19 06:45:00,30.2,26.6,30.11,ESE,106,4.6,-999.9,86,-99.99,,,-99.99,,2013-02-19 11:45:00,
2013-02-19 06:51:00,30.2,26.6,30.11,ESE,109,1.2,-999.9,86,-99.99,,,-99.99,,2013-02-19 11:51:00,
2013-02-19 06:57:00,30.2,26.6,30.11,ESE,109,1.2,-999.9,86,-99.99,,,-99.99,,2013-02-19 11:57:00,
2013-02-19 07:05:00,32.0,28.4,30.11,ESE,107,4.6,-999.9,87,-99.99,,,-99.99,,2013-02-19 12:05:00,
2013-02-19 07:11:00,32.0,28.4,30.11,ESE,117,4.6,-999.9,87,-99.99,,,-99.99,,2013-02-19 12:11:00,
2013-02-19 07:17:00,32.0,28.4,30.11,ESE,117,4.6,-999.9,87,-99.99,,,-99.99,,2013-02-19 12:17:00,
2013-02-19 07:24:00,33.8,30.2,30.11,SE,141,3.5,-999.9,87,-99.99,,,-99.99,,2013-02-19 12:24:00,
2013-02-19 07:31:00,35.6,32.0,30.11,SSE,149,4.6,-999.9,87,-99.99,,,-99.99,,2013-02-19 12:31:00,
2013-02-19 07:37:00,35.6,32.0,30.11,SSE,149,4.6,-999.9,87,-99.99,,,-99.99,,2013-02-19 12:37:00,
2013-02-19 07:45:00,35.6,32.0,30.10,SE,135,5.8,-999.9,87,-99.99,,,-99.99,,2013-02-19 12:45:00,
2013-02-19 07:51:00,37.4,32.0,30.09,SE,144,4.6,-999.9,81,-99.99,,,-99.99,,2013-02-19 12:51:00,
2013-02-19 07:57:00,37.4,32.0,30.09,SE,144,4.6,-999.9,81,-99.99,,,-99.99,,2013-02-19 12:57:00,
2013-02-19 08:05:00,37.4,32.0,30.09,SSE,151,4.6,-999.9,81,-99.99,,,-99.99,,2013-02-19 13:05:00,
2013-02-19 08:11:00,39.2,33.8,30.09,SE,143,10.4,-999.9,81,-99.99,,,-99.99,,2013-02-19 13:11:00,
2013-02-19 08:17:00,39.2,33.8,30.09,SE,143,10.4,-999.9,81,-99.99,,,-99.99,,2013-02-19 13:17:00,
2013-02-19 08:25:00,39.2,32.0,30.09,SE,138,2.3,-999.9,75,-99.99,,,-99.99,,2013-02-19 13:25:00,
2013-02-19 08:32:00,41.0,33.8,30.08,SSE,147,5.8,-999.9,76,-99.99,,,-99.99,,2013-02-19 13:32:00,
2013-02-19 08:37:00,41.0,33.8,30.08,SSE,147,5.8,-999.9,76,-99.99,,,-99.99,,2013-02-19 13:37:00,
2013-02-19 08:45:00,41.0,32.0,30.08,SSE,156,9.2,-999.9,70,-99.99,,,-99.99,,2013-02-19 13:45:00,
2013-02-19 08:52:00,42.8,33.8,30.08,SSE,147,13.8,-999.9,70,-99.99,,,-99.99,,2013-02-19 13:52:00,
2013-02-19 08:57:00,42.8,33.8,30.08,SSE,147,13.8,-999.9,70,-99.99,,,-99.99,,2013-02-19 13:57:00,
2013-02-19 09:06:00,42.8,33.8,30.07,SE,139,9.2,-999.9,70,-99.99,,,-99.99,,2013-02-19 14:06:00,
2013-02-19 09:11:00,42.8,32.0,30.06,SE,142,8.1,-999.9,66,-99.99,,,-99.99,,2013-02-19 14:11:00,
2013-02-19 09:17:00,42.8,32.0,30.06,SE,142,8.1,-999.9,66,-99.99,,,-99.99,,2013-02-19 14:17:00,
2013-02-19 09:25:00,42.8,32.0,30.06,SSE,160,10.4,-999.9,66,-99.99,,,-99.99,,2013-02-19 14:25:00,
2013-02-19 09:30:00,42.8,32.0,30.05,SSE,158,13.8,-999.9,66,-99.99,,,-99.99,,2013-02-19 14:30:00,
2013-02-19 09:37:00,42.8,32.0,30.05,SSE,158,13.8,-999.9,66,-99.99,,,-99.99,,2013-02-19 14:37:00,
2013-02-19 09:45:00,42.8,32.0,30.05,SSE,153,19.6,-999.9,66,-99.99,,,-99.99,,2013-02-19 14:45:00,
2013-02-19 09:51:00,42.8,32.0,30.05,SSE,151,13.8,-999.9,66,-99.99,,,-99.99,,2013-02-19 14:51:00,
2013-02-19 09:57:00,42.8,32.0,30.05,SSE,151,13.8,-999.9,66,-99.99,,,-99.99,,2013-02-19 14:57:00,
2013-02-19 10:05:00,44.6,33.8,30.04,SSE,152,8.1,-999.9,66,-99.99,,,-99.99,,2013-02-19 15:05:00,
2013-02-19 10:11:00,44.6,33.8,30.04,SSE,149,12.7,-999.9,66,-99.99,,,-99.99,,2013-02-19 15:11:00,
2013-02-19 10:19:00,44.6,33.8,30.04,SSE,149,12.7,-999.9,66,-99.99,,,-99.99,,2013-02-19 15:19:00,
2013-02-19 10:27:00,44.6,33.8,30.03,SE,146,18.4,-999.9,66,-99.99,,,-99.99,,2013-02-19 15:27:00,
2013-02-19 10:33:00,44.6,32.0,30.03,SSE,160,16.1,-999.9,61,-99.99,,,-99.99,,2013-02-19 15:33:00,
2013-02-19 10:39:00,44.6,32.0,30.03,SSE,160,16.1,-999.9,61,-99.99,,,-99.99,,2013-02-19 15:39:00,
2013-02-19 10:47:00,44.6,32.0,30.02,SSE,152,23.0,-999.9,61,-99.99,,,-99.99,,2013-02-19 15:47:00,
2013-02-19 10:53:00,44.6,32.0,30.02,SE,142,9.2,-999.9,61,-99.99,,,-99.99,,2013-02-19 15:53:00,
2013-02-19 10:59:00,44.6,32.0,30.02,SE,142,9.2,-999.9,61,-99.99,,,-99.99,,2013-02-19 15:59:00,
2013-02-19 11:07:00,44.6,33.8,30.01,SSE,149,15.0,-999.9,66,-99.99,,,-99.99,,2013-02-19 16:07:00,
2013-02-19 11:13:00,44.6,33.8,30.01,SE,146,16.1,-999.9,66,-99.99,,,-99.99,,2013-02-19 16:13:00,
2013-02-19 11:19:00,44.6,33.8,30.01,SE,146,16.1,-999.9,66,-99.99,,,-99.99,,2013-02-19 16:19:00,
2013-02-19 11:33:00,46.4,35.6,30.00,SE,139,6.9,-999.9,66,-99.99,,,-99.99,,2013-02-19 16:33:00,
2013-02-19 11:39:00,46.4,35.6,30.00,SE,139,6.9,-999.9,66,-99.99,,,-99.99,,2013-02-19 16:39:00,
2013-02-19 11:47:00,46.4,33.8,29.99,SSE,158,18.4,-999.9,62,-99.99,,,-99.99,,2013-02-19 16:47:00,
2013-02-19 11:53:00,46.4,35.6,29.98,SSE,148,18.4,-999.9,66,-99.99,,,-99.99,,2013-02-19 16:53:00,
2013-02-19 11:59:00,46.4,35.6,29.98,SSE,148,18.4,-999.9,66,-99.99,,,-99.99,,2013-02-19 16:59:00,
2013-02-19 12:07:00,46.4,35.6,29.98,SE,142,23.0,-999.9,66,-99.99,,,-99.99,,2013-02-19 17:07:00,
2013-02-19 12:13:00,46.4,35.6,29.97,SSE,148,21.9,-999.9,66,-99.99,,,-99.99,,2013-02-19 17:13:00,
2013-02-19 12:19:00,46.4,35.6,29.97,SSE,148,21.9,-999.9,66,-99.99,,,-99.99,,2013-02-19 17:19:00,
2013-02-19 12:27:00,46.4,37.4,29.97,SE,137,10.4,-999.9,71,-99.99,,,-99.99,,2013-02-19 17:27:00,
2013-02-19 12:33:00,46.4,37.4,29.96,SE,141,13.8,-999.9,71,-99.99,,,-99.99,,2013-02-19 17:33:00,
2013-02-19 12:39:00,46.4,37.4,29.96,SE,141,13.8,-999.9,71,-99.99,,,-99.99,,2013-02-19 17:39:00,
2013-02-19 12:47:00,46.4,35.6,29.95,SSE,156,19.6,-999.9,66,-99.99,,,-99.99,,2013-02-19 17:47:00,
2013-02-19 12:53:00,46.4,35.6,29.94,SE,140,18.4,-999.9,66,-99.99,,,-99.99,,2013-02-19 17:53:00,
2013-02-19 12:59:00,46.4,35.6,29.94,SE,140,18.4,-999.9,66,-99.99,,,-99.99,,2013-02-19 17:59:00,
2013-02-19 13:07:00,46.4,35.6,29.93,SSE,151,17.3,-999.9,66,-99.99,,,-99.99,,2013-02-19 18:07:00,
2013-02-19 13:13:00,46.4,37.4,29.92,SSE,149,24.2,-999.9,71,-99.99,,,-99.99,,2013-02-19 18:13:00,
2013-02-19 13:19:00,46.4,37.4,29.92,SSE,149,24.2,-999.9,71,-99.99,,,-99.99,,2013-02-19 18:19:00,
2013-02-19 13:27:00,46.4,37.4,29.92,SSE,153,12.7,-999.9,71,-99.99,,,-99.99,,2013-02-19 18:27:00,
2013-02-19 13:33:00,46.4,37.4,29.91,SSE,163,15.0,-999.9,71,-99.99,,,-99.99,,2013-02-19 18:33:00,
2013-02-19 13:39:00,46.4,37.4,29.91,SSE,163,15.0,-999.9,71,-99.99,,,-99.99,,2013-02-19 18:39:00,
2013-02-19 13:47:00,46.4,37.4,29.91,SSE,149,15.0,-999.9,71,-99.99,,,-99.99,,2013-02-19 18:47:00,
2013-02-19 13:53:00,46.4,37.4,29.91,SSE,155,9.2,-999.9,71,-99.99,,,-99.99,,2013-02-19 18:53:00,
2013-02-19 13:59:00,46.4,37.4,29.91,SSE,155,9.2,-999.9,71,-99.99,,,-99.99,,2013-02-19 18:59:00,
2013-02-19 14:07:00,46.4,39.2,29.91,SSE,158,10.4,-999.9,76,-99.99,,,-99.99,,2013-02-19 19:07:00,
2013-02-19 14:13:00,46.4,39.2,29.91,South,176,8.1,-999.9,76,-99.99,,,-99.99,,2013-02-19 19:13:00,
2013-02-19 14:19:00,46.4,39.2,29.91,South,176,8.1,-999.9,76,-99.99,,,-99.99,,2013-02-19 19:19:00,
2013-02-19 14:27:00,44.6,39.2,29.90,SSE,167,8.1,-999.9,81,-99.99,,,-99.99,,2013-02-19 19:27:00,
2013-02-19 14:33:00,44.6,39.2,29.89,SSE,149,6.9,-999.9,81,-99.99,,,-99.99,,2013-02-19 19:33:00,
2013-02-19 14:39:00,44.6,39.2,29.89,SSE,149,6.9,-999.9,81,-99.99,,,-99.99,,2013-02-19 19:39:00,
2013-02-19 14:47:00,42.8,39.2,29.88,SSE,148,10.4,-999.9,87,-99.99,,,-99.99,,2013-02-19 19:47:00,
2013-02-19 14:53:00,42.8,39.2,29.87,SE,142,11.5,-999.9,87,-99.99,,,-99.99,,2013-02-19 19:53:00,
2013-02-19 14:59:00,42.8,39.2,29.87,SE,142,11.5,-999.9,87,-99.99,,,-99.99,,2013-02-19 19:59:00,
2013-02-19 15:07:00,42.8,39.2,29.86,SE,142,17.3,-999.9,87,-99.99,,,-99.99,,2013-02-19 20:07:00,
2013-02-19 15:13:00,42.8,41.0,29.85,SE,143,12.7,-999.9,93,-99.99,,,-99.99,,2013-02-19 20:13:00,
2013-02-19 15:19:00,42.8,41.0,29.85,SE,143,12.7,-999.9,93,-99.99,,,-99.99,,2013-02-19 20:19:00,
2013-02-19 15:27:00,42.8,41.0,29.85,SE,143,9.2,-999.9,93,-99.99,,,-99.99,,2013-02-19 20:27:00,
2013-02-19 15:33:00,42.8,41.0,29.85,SSE,156,11.5,-999.9,93,-99.99,,,-99.99,,2013-02-19 20:33:00,
2013-02-19 15:39:00,42.8,41.0,29.85,SSE,156,11.5,-999.9,93,-99.99,,,-99.99,,2013-02-19 20:39:00,
2013-02-19 15:47:00,42.8,41.0,29.83,SE,143,6.9,-999.9,93,-99.99,,,-99.99,,2013-02-19 20:47:00,
2013-02-19 15:53:00,42.8,41.0,29.83,SE,146,11.5,-999.9,93,-99.99,,,-99.99,,2013-02-19 20:53:00,
2013-02-19 15:59:00,42.8,41.0,29.83,SE,146,11.5,-999.9,93,-99.99,,,-99.99,,2013-02-19 20:59:00,
2013-02-19 16:07:00,44.6,42.8,29.82,SSE,152,15.0,-999.9,93,-99.99,,,-99.99,,2013-02-19 21:07:00,
2013-02-19 16:14:00,42.8,41.0,29.82,SE,146,5.8,-999.9,93,-99.99,,,-99.99,,2013-02-19 21:14:00,
2013-02-19 16:19:00,42.8,41.0,29.82,SE,146,5.8,-999.9,93,-99.99,,,-99.99,,2013-02-19 21:19:00,
2013-02-19 16:27:00,44.6,42.8,29.80,SE,132,10.4,-999.9,93,-99.99,,,-99.99,,2013-02-19 21:27:00,
2013-02-19 16:33:00,44.6,44.6,29.79,SE,127,12.7,-999.9,100,-99.99,,,-99.99,,2013-02-19 21:33:00,
2013-02-19 16:39:00,44.6,44.6,29.79,SE,127,12.7,-999.9,100,-99.99,,,-99.99,,2013-02-19 21:39:00,
2013-02-19 16:48:00,44.6,44.6,29.78,SE,138,10.4,-999.9,100,-99.99,,,-99.99,,2013-02-19 21:48:00,
2013-02-19 16:53:00,44.6,44.6,29.77,SE,141,17.3,-999.9,100,-99.99,,,-99.99,,2013-02-19 21:53:00,
2013-02-19 16:59:00,44.6,44.6,29.77,SE,141,17.3,-999.9,100,-99.99,,,-99.99,,2013-02-19 21:59:00,
2013-02-19 17:07:00,44.6,44.6,29.77,SSE,156,15.0,-999.9,100,-99.99,,,-99.99,,2013-02-19 22:07:00,
2013-02-19 17:17:00,44.6,44.6,29.77,SE,142,9.2,-999.9,100,-99.99,,,-99.99,,2013-02-19 22:17:00,
2013-02-19 17:23:00,44.6,44.6,29.75,SE,129,13.8,-999.9,100,-99.99,,,-99.99,,2013-02-19 22:23:00,
2013-02-19 17:29:00,44.6,44.6,29.75,SE,129,13.8,-999.9,100,-99.99,,,-99.99,,2013-02-19 22:29:00,
2013-02-19 17:37:00,44.6,44.6,29.74,SE,128,18.4,-999.9,100,-99.99,,,-99.99,,2013-02-19 22:37:00,
2013-02-19 17:43:00,46.4,46.4,29.74,SE,141,6.9,-999.9,100,-99.99,,,-99.99,,2013-02-19 22:43:00,
2013-02-19 17:49:00,46.4,46.4,29.74,SE,141,6.9,-999.9,100,-99.99,,,-99.99,,2013-02-19 22:49:00,
2013-02-19 17:57:00,46.4,46.4,29.74,SSE,152,13.8,-999.9,100,-99.99,,,-99.99,,2013-02-19 22:57:00,
2013-02-19 18:03:00,46.4,46.4,29.73,SSE,151,12.7,-999.9,100,-99.99,,,-99.99,,2013-02-19 23:03:00,
2013-02-19 18:09:00,46.4,46.4,29.73,SSE,151,12.7,-999.9,100,-99.99,,,-99.99,,2013-02-19 23:09:00,
2013-02-19 18:16:00,46.4,46.4,29.73,SSE,147,15.0,-999.9,100,-99.99,,,-99.99,,2013-02-19 23:16:00,
2013-02-19 18:23:00,46.4,46.4,29.72,SSE,154,18.4,-999.9,100,-99.99,,,-99.99,,2013-02-19 23:23:00,
2013-02-19 18:29:00,46.4,46.4,29.72,SSE,154,18.4,-999.9,100,-99.99,,,-99.99,,2013-02-19 23:29:00,
2013-02-19 18:37:00,46.4,46.4,29.71,SSE,156,13.8,-999.9,100,-99.99,,,-99.99,,2013-02-19 23:37:00,
2013-02-19 18:43:00,46.4,46.4,29.71,SSE,159,18.4,-999.9,100,-99.99,,,-99.99,,2013-02-19 23:43:00,
2013-02-19 18:49:00,46.4,46.4,29.71,SSE,159,18.4,-999.9,100,-99.99,,,-99.99,,2013-02-19 23:49:00,
2013-02-19 18:57:00,46.4,46.4,29.70,SSE,153,13.8,-999.9,100,-99.99,,,-99.99,,2013-02-19 23:57:00,
2013-02-19 19:03:00,46.4,46.4,29.70,South,173,10.4,-999.9,100,-99.99,,,-99.99,,2013-02-20 00:03:00,
2013-02-19 19:09:00,46.4,46.4,29.70,South,173,10.4,-999.9,100,-99.99,,,-99.99,,2013-02-20 00:09:00,
2013-02-19 19:17:00,46.4,46.4,29.70,South,186,10.4,-999.9,100,-99.99,,,-99.99,,2013-02-20 00:17:00,
2013-02-19 20:11:00,44.6,44.6,29.67,SSE,161,2.3,-999.9,100,-99.99,,,-99.99,,2013-02-20 01:11:00,
2013-02-19 20:19:00,44.6,44.6,29.67,SSE,161,2.3,-999.9,100,-99.99,,,-99.99,,2013-02-20 01:19:00,
2013-02-19 20:27:00,44.6,44.6,29.67,SSW,194,4.6,-999.9,100,-99.99,,,-99.99,,2013-02-20 01:27:00,
2013-02-19 20:33:00,44.6,44.6,29.67,SSE,166,5.8,-999.9,100,-99.99,,,-99.99,,2013-02-20 01:33:00,
2013-02-19 20:39:00,44.6,44.6,29.67,SSE,166,5.8,-999.9,100,-99.99,,,-99.99,,2013-02-20 01:39:00,
2013-02-19 20:47:00,44.6,44.6,29.68,South,177,1.2,-999.9,100,-99.99,,,-99.99,,2013-02-20 01:47:00,
2013-02-19 20:53:00,44.6,44.6,29.67,SSW,213,2.3,-999.9,100,-99.99,,,-99.99,,2013-02-20 01:53:00,
2013-02-19 20:59:00,44.6,44.6,29.67,SSW,213,2.3,-999.9,100,-99.99,,,-99.99,,2013-02-20 01:59:00,
2013-02-19 21:07:00,44.6,44.6,29.67,South,188,6.9,-999.9,100,-99.99,,,-99.99,,2013-02-20 02:07:00,
2013-02-19 21:13:00,44.6,44.6,29.66,SSW,206,9.2,-999.9,100,-99.99,,,-99.99,,2013-02-20 02:13:00,
2013-02-19 21:19:00,44.6,44.6,29.66,SSW,206,9.2,-999.9,100,-99.99,,,-99.99,,2013-02-20 02:19:00,
2013-02-19 21:27:00,42.8,42.8,29.66,SW,218,2.3,-999.9,100,-99.99,,,-99.99,,2013-02-20 02:27:00,
2013-02-19 21:37:00,42.8,42.8,29.66,SSW,211,3.5,-999.9,100,-99.99,,,-99.99,,2013-02-20 02:37:00,
2013-02-19 21:43:00,42.8,42.8,29.66,SSW,212,8.1,-999.9,100,-99.99,,,-99.99,,2013-02-20 02:43:00,
2013-02-19 21:49:00,42.8,42.8,29.66,SSW,212,8.1,-999.9,100,-99.99,,,-99.99,,2013-02-20 02:49:00,
2013-02-19 21:57:00,42.8,42.8,29.66,SW,223,6.9,-999.9,100,-99.99,,,-99.99,,2013-02-20 02:57:00,
2013-02-19 22:03:00,42.8,42.8,29.66,SW,232,9.2,-999.9,100,-99.99,,,-99.99,,2013-02-20 03:03:00,
2013-02-19 22:13:00,44.6,42.8,29.66,SW,229,11.5,-999.9,93,-99.99,,,-99.99,,2013-02-20 03:13:00,
2013-02-19 22:19:00,44.6,42.8,29.66,SW,229,11.5,-999.9,93,-99.99,,,-99.99,,2013-02-20 03:19:00,
2013-02-19 22:27:00,44.6,42.8,29.66,SW,230,8.1,-999.9,93,-99.99,,,-99.99,,2013-02-20 03:27:00,
2013-02-19 22:33:00,42.8,41.0,29.66,WSW,238,6.9,-999.9,93,-99.99,,,-99.99,,2013-02-20 03:33:00,
2013-02-19 22:38:00,42.8,41.0,29.66,WSW,238,6.9,-999.9,93,-99.99,,,-99.99,,2013-02-20 03:38:00,
2013-02-19 22:47:00,42.8,41.0,29.66,SW,218,6.9,-999.9,93,-99.99,,,-99.99,,2013-02-20 03:47:00,
2013-02-19 22:53:00,42.8,41.0,29.66,West,266,4.6,-999.9,93,-99.99,,,-99.99,,2013-02-20 03:53:00,
2013-02-19 22:59:00,42.8,41.0,29.66,West,266,4.6,-999.9,93,-99.99,,,-99.99,,2013-02-20 03:59:00,
2013-02-19 23:07:00,42.8,39.2,29.67,SW,233,10.4,-999.9,87,-99.99,,,-99.99,,2013-02-20 04:07:00,
2013-02-19 23:13:00,42.8,39.2,29.67,SW,215,6.9,-999.9,87,-99.99,,,-99.99,,2013-02-20 04:13:00,
2013-02-19 23:19:00,42.8,39.2,29.67,SW,215,6.9,-999.9,87,-99.99,,,-99.99,,2013-02-20 04:19:00,
2013-02-19 23:27:00,41.0,37.4,29.67,WSW,241,10.4,-999.9,87,-99.99,,,-99.99,,2013-02-20 04:27:00,
2013-02-19 23:33:00,41.0,35.6,29.67,SW,227,11.5,-999.9,81,-99.99,,,-99.99,,2013-02-20 04:33:00,
2013-02-19 23:39:00,41.0,35.6,29.67,SW,227,11.5,-999.9,81,-99.99,,,-99.99,,2013-02-20 04:39:00,
2013-02-19 23:47:00,41.0,33.8,29.68,SW,234,12.7,-999.9,76,-99.99,,,-99.99,,2013-02-20 04:47:00,
2013-02-19 23:53:00,41.0,33.8,29.67,SW,229,9.2,-999.9,76,-99.99,,,-99.99,,2013-02-20 04:53:00,
2013-02-19 23:59:00,41.0,33.8,29.67,SW,229,9.2,-999.9,76,-99.99,,,-99.99,,2013-02-20 04:59:00,